When you browse on this site, cookies collect data to enhance your experience and personalize the content and advertising you see.
Visit our Privacy Policy to learn more. By continuing to use the site, you agree to this use of cookies and data.
  • In Lithuania
  • List of Countries
  • For 7 days
  • Water Temperature
  • Weather Map
  • Weather Widgets
  • user-avatar
    Login

    Hourly Weather Ghazni

    Today, 16 December, Monday

    Time Temperature Precipitation Wind Pressure Humidity
    00:00 -3°C° 0 mm 1 mps 585 mmHg 36%
    01:00 -3°C° 0 mm 1 mps 585 mmHg 35%
    02:00 -3°C° 0 mm 1 mps 585 mmHg 33%
    03:00 -5°C° 0 mm 2 mps 584 mmHg 32%
    04:00 -5°C° 0 mm 2 mps 584 mmHg 31%
    05:00 -5°C° 0 mm 2 mps 584 mmHg 29%
    06:00 -5°C° 0 mm 2 mps 584 mmHg 29%
    07:00 -5°C° 0 mm 2 mps 585 mmHg 29%
    08:00 -5°C° 0 mm 2 mps 585 mmHg 29%
    09:00 -4°C° 0 mm 2 mps 585 mmHg 27%
    10:00 -1°C° 0 mm 1 mps 586 mmHg 26%
    11:00 +1°C° 0 mm 1 mps 586 mmHg 25%
    12:00 +1°C° 0 mm 1 mps 586 mmHg 25%
    13:00 +2°C° 0 mm 1 mps 585 mmHg 25%
    14:00 +1°C° 0 mm 0 mps 585 mmHg 26%
    15:00 0°C° 0 mm 0 mps 585 mmHg 31%
    16:00 -1°C° 0 mm 0 mps 584 mmHg 36%
    17:00 -2°C° 0 mm 0 mps 584 mmHg 41%
    18:00 -1°C° 0 mm 1 mps 584 mmHg 41%
    19:00 -1°C° 0 mm 1 mps 585 mmHg 42%
    20:00 -2°C° 0 mm 1 mps 585 mmHg 42%
    21:00 -2°C° 0 mm 1 mps 585 mmHg 42%
    22:00 -2°C° 0 mm 1 mps 586 mmHg 41%
    23:00 -2°C° 0 mm 1 mps 586 mmHg 41%

    Tomorrow, 17 December, Tuesday

    Time Temperature Precipitation Wind Pressure Humidity
    00:00 -2°C° 0 mm 1 mps 586 mmHg 40%
    01:00 -4°C° 0 mm 2 mps 586 mmHg 40%
    02:00 -4°C° 0 mm 2 mps 586 mmHg 39%
    03:00 -4°C° 0 mm 2 mps 586 mmHg 39%
    04:00 -4°C° 0 mm 2 mps 586 mmHg 39%
    05:00 -4°C° 0 mm 2 mps 586 mmHg 38%
    06:00 -4°C° 0 mm 2 mps 586 mmHg 38%
    07:00 -4°C° 0 mm 2 mps 586 mmHg 37%
    08:00 -4°C° 0 mm 2 mps 587 mmHg 37%
    09:00 -2°C° 0 mm 2 mps 587 mmHg 35%
    10:00 +1°C° 0 mm 1 mps 587 mmHg 33%
    11:00 +2°C° 0 mm 1 mps 587 mmHg 31%
    12:00 +3°C° 0 mm 1 mps 587 mmHg 31%
    13:00 +4°C° 0 mm 1 mps 587 mmHg 31%
    14:00 +3°C° 0 mm 0 mps 586 mmHg 31%
    15:00 +2°C° 0 mm 0 mps 586 mmHg 35%
    16:00 +1°C° 0 mm 0 mps 585 mmHg 39%
    17:00 0°C° 0 mm 0 mps 584 mmHg 44%
    18:00 +1°C° 0 mm 1 mps 585 mmHg 43%
    19:00 +1°C° 0 mm 1 mps 585 mmHg 41%
    20:00 +1°C° 0 mm 1 mps 585 mmHg 40%
    21:00 +1°C° 0 mm 1 mps 585 mmHg 41%
    22:00 0°C° 0 mm 0 mps 585 mmHg 41%
    23:00 0°C° 0 mm 0 mps 585 mmHg 41%

    Day after tomorrow, 18 December, Wednesday

    Time Temperature Precipitation Wind Pressure Humidity
    00:00 0°C° 0 mm 0 mps 585 mmHg 41%
    01:00 +1°C° 0 mm 1 mps 585 mmHg 41%
    02:00 +1°C° 0 mm 1 mps 585 mmHg 42%
    03:00 +1°C° 0 mm 1 mps 584 mmHg 43%
    04:00 +1°C° 0 mm 1 mps 584 mmHg 44%
    05:00 0°C° 0 mm 0 mps 584 mmHg 45%
    06:00 0°C° 0 mm 0 mps 584 mmHg 44%
    07:00 +1°C° 0 mm 1 mps 584 mmHg 43%
    08:00 +1°C° 0 mm 1 mps 584 mmHg 42%
    09:00 +2°C° 0 mm 1 mps 585 mmHg 41%
    10:00 +3°C° 0 mm 1 mps 585 mmHg 39%
    11:00 +3°C° 0 mm 2 mps 585 mmHg 37%
    12:00 +5°C° 0 mm 1 mps 585 mmHg 38%
    13:00 +5°C° 0 mm 1 mps 584 mmHg 39%
    14:00 +6°C° 0 mm 1 mps 584 mmHg 40%
    15:00 +5°C° 0 mm 1 mps 583 mmHg 44%
    16:00 +4°C° 0 mm 1 mps 583 mmHg 49%
    17:00 +3°C° 0 mm 1 mps 583 mmHg 53%
    18:00 +3°C° 0 mm 1 mps 583 mmHg 55%
    19:00 +2°C° 0 mm 1 mps 583 mmHg 56%
    20:00 +2°C° 0 mm 1 mps 583 mmHg 58%
    21:00 +2°C° 0 mm 1 mps 583 mmHg 60%
    22:00 +2°C° 0 mm 1 mps 583 mmHg 61%
    23:00 +2°C° 0 mm 1 mps 584 mmHg 63%

    19 December, Thursday

    Time Temperature Precipitation Wind Pressure Humidity
    00:00 +1°C° 0 mm 1 mps 583 mmHg 66%
    01:00 +1°C° 0 mm 1 mps 583 mmHg 68%
    02:00 +1°C° 0 mm 1 mps 583 mmHg 70%
    03:00 +1°C° 0 mm 1 mps 583 mmHg 72%
    04:00 +1°C° 0 mm 1 mps 583 mmHg 74%
    05:00 0°C° 0 mm 1 mps 582 mmHg 76%
    06:00 +1°C° 0 mm 1 mps 583 mmHg 75%
    07:00 0°C° 0 mm 0 mps 583 mmHg 75%
    08:00 0°C° 0 mm 0 mps 584 mmHg 75%
    09:00 +1°C° 0 mm 0 mps 584 mmHg 71%
    10:00 +2°C° 0 mm 0 mps 584 mmHg 68%
    11:00 +3°C° 0 mm 0 mps 584 mmHg 65%
    12:00 +3°C° 0 mm 0 mps 584 mmHg 63%
    13:00 +4°C° 0 mm 1 mps 583 mmHg 62%
    14:00 +5°C° 0 mm 1 mps 583 mmHg 61%
    15:00 +4°C° 0 mm 1 mps 582 mmHg 64%
    16:00 +3°C° 0 mm 0 mps 582 mmHg 68%
    17:00 +3°C° 0 mm 0 mps 582 mmHg 71%
    18:00 +3°C° 0.1 mm 1 mps 582 mmHg 72%
    19:00 +3°C° 0.1 mm 1 mps 582 mmHg 73%
    20:00 +2°C° 0.1 mm 1 mps 583 mmHg 74%
    21:00 +1°C° 0.1 mm 2 mps 583 mmHg 72%
    22:00 +1°C° 0.1 mm 2 mps 583 mmHg 69%
    23:00 +1°C° 0.1 mm 2 mps 583 mmHg 67%

    20 December, Friday

    Time Temperature Precipitation Wind Pressure Humidity
    00:00 -1°C° 0 mm 2 mps 582 mmHg 65%
    01:00 -1°C° 0 mm 2 mps 582 mmHg 63%
    02:00 -2°C° 0 mm 2 mps 582 mmHg 60%
    03:00 -2°C° 0 mm 2 mps 582 mmHg 60%
    04:00 -2°C° 0 mm 2 mps 582 mmHg 60%
    05:00 -3°C° 0 mm 2 mps 582 mmHg 59%
    06:00 -3°C° 0 mm 2 mps 582 mmHg 58%
    07:00 -3°C° 0 mm 2 mps 582 mmHg 57%
    08:00 -3°C° 0 mm 2 mps 583 mmHg 56%
    09:00 -2°C° 0 mm 2 mps 583 mmHg 52%
    10:00 -1°C° 0 mm 2 mps 583 mmHg 47%
    11:00 +2°C° 0 mm 1 mps 583 mmHg 43%
    12:00 +3°C° 0 mm 1 mps 583 mmHg 41%
    13:00 +4°C° 0 mm 1 mps 583 mmHg 39%
    14:00 +4°C° 0 mm 1 mps 582 mmHg 37%
    15:00 +4°C° 0 mm 1 mps 582 mmHg 41%
    16:00 +3°C° 0 mm 1 mps 582 mmHg 45%
    17:00 +2°C° 0 mm 1 mps 582 mmHg 49%
    18:00 +2°C° 0 mm 1 mps 582 mmHg 48%
    19:00 -1°C° 0 mm 2 mps 582 mmHg 48%
    20:00 -2°C° 0 mm 2 mps 583 mmHg 48%
    21:00 -2°C° 0 mm 2 mps 583 mmHg 45%
    22:00 -2°C° 0 mm 2 mps 583 mmHg 43%
    23:00 -3°C° 0 mm 2 mps 583 mmHg 41%

    21 December, Saturday

    Time Temperature Precipitation Wind Pressure Humidity
    00:00 -3°C° 0 mm 2 mps 583 mmHg 40%
    01:00 -3°C° 0 mm 2 mps 583 mmHg 39%
    02:00 -3°C° 0 mm 2 mps 583 mmHg 37%
    03:00 -3°C° 0 mm 2 mps 583 mmHg 36%
    04:00 -4°C° 0 mm 2 mps 583 mmHg 35%
    05:00 -4°C° 0 mm 2 mps 583 mmHg 34%
    06:00 -4°C° 0 mm 2 mps 583 mmHg 33%
    07:00 -4°C° 0 mm 2 mps 583 mmHg 32%
    08:00 -4°C° 0 mm 2 mps 583 mmHg 31%
    09:00 -3°C° 0 mm 2 mps 584 mmHg 29%
    10:00 +1°C° 0 mm 1 mps 584 mmHg 26%
    11:00 +2°C° 0 mm 1 mps 584 mmHg 24%
    12:00 +3°C° 0 mm 1 mps 584 mmHg 23%
    13:00 +3°C° 0 mm 1 mps 583 mmHg 23%
    14:00 +3°C° 0 mm 0 mps 583 mmHg 23%
    15:00 +2°C° 0 mm 0 mps 583 mmHg 27%
    16:00 +1°C° 0 mm 0 mps 582 mmHg 32%
    17:00 0°C° 0 mm 0 mps 582 mmHg 36%
    18:00 0°C° 0 mm 0 mps 582 mmHg 35%
    19:00 0°C° 0 mm 1 mps 582 mmHg 34%
    20:00 0°C° 0 mm 1 mps 583 mmHg 33%
    21:00 0°C° 0 mm 1 mps 583 mmHg 32%
    22:00 0°C° 0 mm 1 mps 583 mmHg 31%
    23:00 0°C° 0 mm 1 mps 583 mmHg 30%
    Show more